Location: Eaton Estates
(41.3089°N, 82.0057°W)
Time: 08:33:27
(UTC+00:00)

X-37B - Pass Details

Date: 11 December 2022
Orbit: 277 x 277 km, 45.0° (Epoch: 01 November)

Event Time Altitude Azimuth Distance (km) Brightness Sun altitude
Rises 23:31:40 0° 276° (W) 1,913 5.4 -16.8°
Reaches altitude 10° 23:33:41 10° 287° (WNW) 1,101 3.7 -17.2°
Enters shadow 23:35:31 30° 330° (NNW) 536 1.4 -17.5°
